Location: Newark
(49.2191°N, 12.6671°E)
Time: 17:49:49
(UTC+00:00)

Transit 4A - Pass Details

Date: 29 January 2020
Orbit: 872 x 973 km, 66.8° (Epoch: 26 February)

Event Time Altitude Azimuth Distance (km) Brightness Sun altitude
Rises 06:42:38 0° 251° (WSW) 3,524 10.5 -1.2°
Reaches altitude 10° 06:45:28 10° 262° (W) 2,570 9.7 -0.8°
Maximum altitude 06:50:40 31° 323° (NW) 1,521 8.6 -0.1°
Drops below altitude 10° 06:55:49 10° 25° (NNE) 2,539 10.2 0.7°
Sets 06:58:37 0° 36° (NE) 3,475 11.0 1.1°
